[[{"header":{"parameterUnit":"m.s-1","parameterCategory":1,"la1":30.2991,"la2":30.254,"lo1":-89.0895,"lo2":-89.0444,"dy":0.0017,"dx":0.0017,"nx":28,"ny":28,"refTime":"2023-09-04T21:00:00:Z","depth":0,"parameterNumber":2,"parameterNumberName":"U-component_of_WINDS"},"data":[0,0,0,0,0,0,0,0,0,0,0,0,0,0,0,0,0,0,0,0,0,0,0,0,0,0,0,0,0,0,0,0,0,0,0,0,0,0,0,0,0,0,0,0,0,0,0,0,0,0,0,0,0,0,0,0,0,0,-4.7588,-4.7589,0,-4.7596,-4.7596,-4.7596,-4.756,-4.7559,-4.7557,-4.7556,-4.7565,-4.7566,-4.7567,0,0,0,0,0,0,0,0,0,0,0,0,0,-4.7544,-4.7545,-4.7588,-4.7589,-4.7589,-4.7596,-4.7596,-4.7596,-4.756,-4.7558,-4.7557,-4.7556,-4.7564,-4.7566,-4.7567,0,0,0,0,0,0,0,0,0,0,0,0,0,-4.7559,-4.7545,-4.7588,-4.7571,-4.757,-4.7596,-4.7596,-4.7596,-4.756,-4.7558,-4.7557,-4.7555,-4.7564,-4.7566,-4.7567,-4.7611,0,0,-4.7573,-4.7574,0,0,0,0,0,0,0,0,-4.7558,-4.756,-4.7574,-4.7573,-4.7571,-4.7575,-4.7584,-4.7601,-4.756,-4.7564,-4.7556,-4.7555,-4.757,-4.7571,-4.7576,-4.7611,-4.7611,-4.7573,-4.7574,-4.7575,-4.7576,0,0,0,0,0,0,0,-4.7557,-4.756,-4.7592,-4.7574,-4.7572,-4.7564,-4.7564,-4.7587,-4.7576,-4.7563,-4.7561,-4.7562,-4.7568,-4.7574,-4.7576,-4.7612,-4.7573,-4.7575,-4.7576,-4.7577,-4.7684,-4.7686,0,0,0,0,0,0,-4.7558,-4.7559,-4.7591,-4.7592,-4.756,-4.7566,-4.7566,-4.7576,-4.7575,-4.7574,-4.7563,-4.756,-4.7572,-4.7574,-4.7576,-4.7626,-4.7575,-4.7577,-4.7578,-4.7683,-4.7685,-4.7687,0,0,0,0,0,0,-4.7557,-4.7561,-4.7591,-4.7575,-4.7578,-4.7568,-4.7579,-4.7577,-4.7582,-4.7575,-4.7573,-4.7571,-4.7571,-4.7573,-4.7603,-4.7626,-4.7578,-4.7579,-4.768,-4.7683,-4.7686,-4.7728,0,0,0,0,0,0,-4.7556,-4.7561,-4.7577,-4.7575,-4.7579,-4.7617,-4.7581,-4.7578,-4.7585,-4.7581,-4.7582,-4.758,-4.757,-4.76,-4.7604,-4.7628,-4.7581,-4.7678,-4.7682,-4.7685,-4.7725,-4.7732,-4.7738,0,0,0,0,0,-4.7555,-4.7588,-4.7578,-4.7582,-4.7598,-4.7618,-4.762,-4.7607,-4.7587,-4.7603,-4.7599,-4.758,-4.7624,-4.7603,-4.7608,-4.7632,-4.7677,-4.7681,-4.7685,-4.7721,-4.773,-4.7738,0,0,0,0,0,0,-4.7592,-4.7588,-4.7576,-4.761,-4.7615,-4.7612,-4.7631,-4.7617,-4.7627,-4.7623,-4.7607,-4.7607,-4.7639,-4.7639,-4.7617,-4.7675,-4.7647,-4.7652,-4.7673,-4.7682,-4.7689,-4.7687,-4.7582,0,0,0,0,0,-4.7604,-4.7621,-4.7616,-4.7647,-4.765,-4.7641,-4.7649,-4.7639,-4.7643,-4.7645,-4.7643,-4.7648,-4.7663,-4.7673,-4.7686,-4.7726,-4.7725,-4.7745,-4.7752,-4.7757,-4.7761,-4.7783,-4.7791,-4.77,-4.77,-4.77,0,0,-4.7629,-4.7629,-4.764,-4.7654,-4.7657,-4.7675,-4.7642,-4.7662,-4.7675,-4.7648,-4.7675,-4.7674,-4.7679,-4.7714,-4.7729,-4.7715,-4.7787,-4.7763,-4.7767,-4.7768,-4.7788,-4.7796,-4.7804,-4.7702,-4.7702,-4.7701,0,0,-4.7684,-4.7686,-4.7711,-4.7715,-4.772,-4.7714,-4.7721,-4.7721,-4.7719,-4.7747,-4.7727,-4.7743,-4.7768,-4.7773,-4.7779,-4.7839,-4.7821,-4.7844,-4.7878,-4.7899,-4.7907,-4.7913,-4.7934,-4.7941,-4.7848,-4.7848,-4.7848,0,-4.7714,-4.774,-4.7727,-4.7748,-4.7755,-4.7732,-4.7759,-4.7763,-4.7772,-4.7778,-4.7762,-4.7795,-4.7797,-4.7832,-4.7847,-4.7853,-4.786,-4.7842,-4.7907,-4.7913,-4.7919,-4.7938,-4.7946,-4.7851,-4.7851,-4.785,-4.785,0,-4.7777,-4.7795,-4.7816,-4.7825,-4.7835,-4.7859,-4.785,-4.7862,-4.7852,-4.7848,-4.7877,-4.7879,-4.7893,-4.7901,-4.7891,-4.7936,-4.7927,-4.791,-4.788,-4.793,-4.7948,-4.7955,-4.7854,-4.7854,-4.7853,-4.7852,0,0,-4.7852,-4.7856,-4.7863,-4.7868,-4.7873,-4.7887,-4.7911,-4.7925,-4.7935,-4.7943,-4.7962,-4.7986,-4.7971,-4.7977,-4.7968,-4.7987,-4.8034,-4.7968,-4.7967,-4.7979,-4.8084,-4.8095,-4.8104,-4.8024,-4.8026,-4.8027,-4.8083,0,-4.7904,-4.7944,-4.7935,-4.7974,-4.7991,-4.7972,-4.7993,-4.7999,-4.7997,-4.8011,-4.801,-4.8026,-4.8005,-4.8009,-4.8027,-4.8025,-4.8055,-4.8021,-4.8042,-4.8043,-4.8039,-4.8113,-4.8125,-4.8178,-4.809,-4.8091,-4.8092,0,-4.797,-4.7981,-4.8023,-4.8026,-4.8033,-4.8052,-4.8064,-4.8079,-4.8086,-4.8083,-4.8092,-4.808,-4.8105,-4.8078,-4.8111,-4.8089,-4.8097,-4.8098,-4.81,-4.8099,-4.8068,-4.8113,-4.8194,-4.8201,-4.8103,-4.8102,-4.8101,0,-4.8019,-4.8045,-4.8073,-4.8078,-4.8083,-4.8097,-4.81,-4.8105,-4.8115,-4.8126,-4.8132,-4.8147,-4.8154,-4.8166,-4.8159,-4.814,-4.8194,-4.8166,-4.8192,-4.8192,-4.8202,-4.8201,-4.8283,-4.8211,-4.8211,-4.8211,-4.821,0,-4.8078,-4.8104,-4.8095,-4.8112,-4.8141,-4.8131,-4.8161,-4.8161,-4.8167,-4.8184,-4.8169,-4.8186,-4.8176,-4.8193,-4.8188,-4.8216,-4.822,-4.8219,-4.8217,-4.8219,-4.8219,-4.8222,-4.8218,-4.8213,-4.8212,-4.8212,-4.8211,0,-4.8136,-4.8132,-4.8161,-4.8164,-4.8166,-4.8187,-4.819,-4.8207,-4.8205,-4.8227,-4.8232,-4.8229,-4.8248,-4.8243,-4.8263,-4.826,-4.8296,-4.829,-4.8293,-4.8291,-4.8316,-4.8313,-4.8402,-4.8413,-4.8335,-4.8336,-4.8337,0,-4.8172,-4.8192,-4.8198,-4.8209,-4.8213,-4.8231,-4.824,-4.8232,-4.8243,-4.8254,-4.827,-4.8287,-4.83,-4.8332,-4.8331,-4.8347,-4.8341,-4.8371,-4.8343,-4.8345,-4.834,-4.8338,-4.834,-4.8376,-4.8377,-4.8377,-4.8378,0,-4.8238,-4.8235,-4.825,-4.8264,-4.8277,-4.8288,-4.8297,-4.8307,-4.83,-4.8313,-4.8333,-4.8343,-4.8365,-4.8382,-4.8397,-4.8401,-4.8388,-4.8387,-4.8394,-4.8395,-4.8396,-4.8395,-4.8306,-4.8385,-4.8384,-4.8383,-4.8383,-4.8383,-4.8285,-4.8302,-4.8309,-4.8326,-4.8333,-4.8343,-4.8359,-4.836,-4.8376,-4.8392,-4.8387,-4.8409,-4.8418,-4.8437,-4.8443,-4.846,-4.8448,-4.8458,-4.846,-4.8462,-4.8465,-4.8395,-4.8463,-4.8463,-4.8463,-4.8462,-4.8462,0,-4.8349,-4.8353,-4.8369,-4.8383,-4.8398,-4.8386,-4.8397,-4.8409,-4.8429,-4.8438,-4.8452,-4.8474,-4.8492,-4.8495,-4.8511,-4.8525,-4.852,-4.853,-4.8527,-4.8528,-4.8475,-4.8467,-4.8534,-4.8534,-4.8534,-4.8534,-4.8534,-4.8534,-4.8383,-4.8411,-4.841,-4.8441,-4.8446,-4.8467,-4.8474,-4.8484,-4.8491,-4.8517,-4.8532,-4.8533,-4.854,-4.8558,-4.8574,-4.8574,-4.858,-4.8592,-4.859,-4.8539,-4.8532,-4.8525,-4.8518,-4.8594,-4.8594,-4.8642,-4.8643,-4.8643]},{"header":{"parameterUnit":"m.s-1","parameterCategory":1,"la1":30.2991,"la2":30.254,"lo1":-89.0895,"lo2":-89.0444,"dy":0.0017,"dx":0.0017,"nx":28,"ny":28,"refTime":"2023-09-04T21:00:00:Z","depth":0,"parameterNumber":3,"parameterNumberName":"V-component_of_WINDS"},"data":[0,0,0,0,0,0,0,0,0,0,0,0,0,0,0,0,0,0,0,0,0,0,0,0,0,0,0,0,0,0,0,0,0,0,0,0,0,0,0,0,0,0,0,0,0,0,0,0,0,0,0,0,0,0,0,0,0,0,5.0046,5.0046,0,5.0054,5.0054,5.0054,5.0047,5.0047,5.0046,5.0046,5.0051,5.0051,5.0052,0,0,0,0,0,0,0,0,0,0,0,0,0,5.0023,5.0023,5.0046,5.0046,5.0046,5.0054,5.0054,5.0054,5.0047,5.0047,5.0046,5.0046,5.0051,5.0051,5.0052,0,0,0,0,0,0,0,0,0,0,0,0,0,5.0032,5.0024,5.0046,5.0044,5.0044,5.0054,5.0054,5.0054,5.0047,5.0047,5.0046,5.0046,5.0051,5.0051,5.0052,5.0064,0,0,5.0054,5.0054,0,0,0,0,0,0,0,0,5.0032,5.0033,5.0044,5.0044,5.0044,5.0049,5.0048,5.0058,5.0047,5.0046,5.0046,5.0046,5.0051,5.0051,5.0054,5.0065,5.0065,5.0054,5.0054,5.0054,5.0055,0,0,0,0,0,0,0,5.0031,5.0033,5.0049,5.0044,5.0044,5.0042,5.0043,5.005,5.005,5.0046,5.0045,5.0046,5.005,5.0053,5.0054,5.0065,5.0054,5.0054,5.0055,5.0055,5.0088,5.0088,0,0,0,0,0,0,5.0031,5.0032,5.0049,5.005,5.0037,5.0042,5.0043,5.0048,5.005,5.005,5.0047,5.0046,5.0052,5.0053,5.0054,5.0069,5.0054,5.0055,5.0055,5.0087,5.0088,5.0089,0,0,0,0,0,0,5.003,5.0033,5.0049,5.0041,5.0043,5.0043,5.0048,5.0048,5.0051,5.0051,5.0051,5.0049,5.0052,5.0053,5.0062,5.0069,5.0055,5.0056,5.0087,5.0088,5.0088,5.01,0,0,0,0,0,0,5.003,5.0032,5.0037,5.0041,5.0043,5.0058,5.0049,5.0049,5.0052,5.0051,5.0053,5.0053,5.0052,5.0061,5.0063,5.007,5.0056,5.0086,5.0087,5.0088,5.0099,5.0101,5.0103,0,0,0,0,0,5.0029,5.0039,5.0038,5.004,5.005,5.0058,5.0059,5.0058,5.0053,5.0058,5.0058,5.0053,5.0068,5.0062,5.0064,5.0071,5.0086,5.0087,5.0088,5.0098,5.01,5.0103,0,0,0,0,0,0,5.0035,5.004,5.0038,5.005,5.0054,5.0057,5.0063,5.006,5.0065,5.0064,5.0061,5.0061,5.0072,5.0072,5.0066,5.0084,5.0076,5.0078,5.0083,5.0086,5.0087,5.0087,5.0057,0,0,0,0,0,5.0038,5.0045,5.0049,5.0059,5.0061,5.0062,5.0065,5.0064,5.0068,5.0069,5.007,5.0073,5.0079,5.0082,5.0087,5.0099,5.01,5.0105,5.0107,5.0108,5.011,5.0117,5.0119,5.0092,5.0092,5.0092,0,0,5.0043,5.0047,5.0051,5.006,5.0063,5.007,5.0063,5.0071,5.0076,5.007,5.0079,5.008,5.0084,5.0095,5.01,5.0096,5.0118,5.011,5.0111,5.0111,5.0118,5.0121,5.0123,5.0093,5.0093,5.0093,0,0,5.0057,5.0061,5.007,5.0074,5.0079,5.008,5.0082,5.0086,5.0087,5.0097,5.0093,5.0099,5.0108,5.0111,5.0114,5.0131,5.0127,5.0133,5.0143,5.015,5.0152,5.0154,5.016,5.0163,5.0134,5.0134,5.0134,0,5.0063,5.0075,5.0075,5.0084,5.0088,5.0084,5.0094,5.0097,5.0103,5.0106,5.0102,5.0115,5.0116,5.0129,5.0133,5.0135,5.0138,5.0132,5.0152,5.0154,5.0155,5.0162,5.0164,5.0135,5.0135,5.0135,5.0135,0,5.0082,5.009,5.0097,5.0105,5.011,5.0119,5.012,5.0125,5.0124,5.0125,5.0136,5.0138,5.0144,5.0147,5.0145,5.016,5.0157,5.0152,5.0144,5.0159,5.0165,5.0167,5.0136,5.0136,5.0135,5.0135,0,0,5.0098,5.0108,5.011,5.0115,5.0121,5.0127,5.0137,5.0144,5.0148,5.0153,5.0161,5.017,5.0166,5.0169,5.0168,5.0174,5.0189,5.0169,5.0169,5.0173,5.0205,5.0208,5.0211,5.0186,5.0187,5.0187,5.0205,0,5.0113,5.013,5.0131,5.0146,5.0154,5.0152,5.016,5.0165,5.0167,5.0173,5.0175,5.0182,5.0176,5.0178,5.0184,5.0186,5.0195,5.0184,5.0193,5.0193,5.0192,5.0214,5.0217,5.0234,5.0207,5.0207,5.0208,0,5.0131,5.0139,5.0156,5.0163,5.0166,5.0173,5.0181,5.0188,5.0193,5.0194,5.0199,5.0197,5.0206,5.0198,5.0211,5.0204,5.0207,5.0209,5.0209,5.021,5.0201,5.0215,5.0239,5.0241,5.0211,5.0211,5.0211,0,5.0142,5.0156,5.0168,5.0172,5.018,5.0186,5.0189,5.0195,5.02,5.0206,5.0209,5.0216,5.022,5.0225,5.0225,5.022,5.0238,5.023,5.0239,5.0239,5.0242,5.0242,5.0267,5.0245,5.0245,5.0245,5.0245,0,5.0158,5.0168,5.0174,5.0181,5.0193,5.0194,5.0205,5.0208,5.0214,5.0221,5.0219,5.0226,5.0226,5.0233,5.0234,5.0244,5.0246,5.0247,5.0246,5.0247,5.0247,5.0249,5.0248,5.0245,5.0245,5.0245,5.0245,0,5.0172,5.0176,5.0189,5.0197,5.0199,5.0207,5.0213,5.022,5.0223,5.0233,5.0235,5.0238,5.0247,5.0248,5.0257,5.0257,5.027,5.0269,5.0269,5.0269,5.0277,5.0276,5.0304,5.0308,5.0283,5.0284,5.0284,0,5.0182,5.019,5.0199,5.0205,5.021,5.0219,5.0224,5.0226,5.0232,5.024,5.0246,5.0255,5.0262,5.0275,5.0278,5.0285,5.0284,5.0294,5.0285,5.0286,5.0285,5.0284,5.0285,5.0295,5.0295,5.0295,5.0296,0,5.0199,5.0201,5.021,5.022,5.0227,5.0235,5.0242,5.0246,5.0249,5.0256,5.0266,5.0271,5.0282,5.029,5.0298,5.0301,5.0299,5.0298,5.0301,5.0301,5.0301,5.0301,5.0273,5.0298,5.0297,5.0297,5.0297,5.0297,5.0211,5.0219,5.0227,5.0238,5.0244,5.0251,5.0258,5.0263,5.0271,5.0281,5.0281,5.0292,5.0298,5.0309,5.0312,5.032,5.0317,5.032,5.0321,5.0322,5.0323,5.03,5.0321,5.0321,5.0321,5.0321,5.0321,0,5.0229,5.0235,5.0244,5.0255,5.0264,5.0263,5.0271,5.0277,5.0287,5.0294,5.0302,5.0313,5.0322,5.0326,5.0335,5.034,5.0339,5.0342,5.0342,5.0343,5.0325,5.0322,5.0343,5.0343,5.0343,5.0343,5.0343,5.0343,5.0239,5.0252,5.0256,5.0272,5.0278,5.0289,5.0294,5.0301,5.0307,5.032,5.0328,5.0331,5.0337,5.0346,5.0354,5.0355,5.0358,5.0362,5.0362,5.0346,5.0344,5.0341,5.0339,5.0362,5.0362,5.0379,5.0379,5.0379]}]]